WMT5RZ LCLK-LRIA

Flight info

Callsign WMT5RZ
Flight time 2h 32m
Altitude 38000
Route PHA M31 GENOS DCT PEDER M855 TOMBI UA16 AYT UQ23 OSVEL UL619 MAKOL DCT LUGEB DCT FOCSA DCT KENUX DCT BCU T74 ABOLO
Aircraft A320/M-SDE3FGHIRWY/LB1

Departure

Time 2026-04-15 14:52
Airport Larnaca International Airport (LCLK)

Arrival

Time 2026-04-15 17:25
Airport Iaşi International Airport (LRIA)
Time Latitude Longitude Altitude Speed Heading
2026-04-15 14:21 34.87098 33.60983 20 ft 0 kts 225°
2026-04-15 14:32 34.87099 33.60983 20 ft 0 kts 225°
2026-04-15 14:44 34.87105 33.60990 21 ft 4 kts 225°
2026-04-15 14:44 34.87124 33.61014 21 ft 4 kts 225°
2026-04-15 14:44 34.87142 33.61035 22 ft 4 kts 248°
2026-04-15 14:44 34.87143 33.61063 21 ft 4 kts 304°
2026-04-15 14:45 34.87125 33.61084 25 ft 4 kts 316°
2026-04-15 14:45 34.87106 33.61106 25 ft 4 kts 315°
2026-04-15 14:45 34.87086 33.61130 22 ft 4 kts 315°
2026-04-15 14:45 34.87071 33.61149 23 ft 1 kts 315°
2026-04-15 14:46 34.87068 33.61152 23 ft 1 kts 315°
2026-04-15 14:48 34.87069 33.61150 23 ft 1 kts 308°
2026-04-15 14:48 34.87064 33.61144 21 ft 1 kts 224°
2026-04-15 14:48 34.87059 33.61149 21 ft 1 kts 156°
2026-04-15 14:48 34.87036 33.61187 20 ft 11 kts 126°
2026-04-15 14:49 34.86986 33.61252 20 ft 6 kts 136°
2026-04-15 14:49 34.86973 33.61267 20 ft 1 kts 136°
2026-04-15 14:49 34.86972 33.61268 20 ft 0 kts 136°
2026-04-15 14:49 34.86971 33.61269 20 ft 1 kts 136°
2026-04-15 14:50 34.86955 33.61287 20 ft 5 kts 136°
2026-04-15 14:50 34.86931 33.61315 20 ft 9 kts 136°
2026-04-15 14:50 34.86875 33.61374 20 ft 13 kts 153°
2026-04-15 14:50 34.86790 33.61320 20 ft 15 kts 224°
2026-04-15 14:51 34.86697 33.61307 21 ft 15 kts 146°
2026-04-15 14:51 34.86628 33.61382 21 ft 13 kts 136°
2026-04-15 14:51 34.86627 33.61480 21 ft 8 kts 44°
2026-04-15 14:51 34.86665 33.61525 20 ft 32 kts 45°
2026-04-15 14:52 34.86989 33.61919 22 ft 96 kts 45°
2026-04-15 14:52 34.87587 33.62651 22 ft 144 kts 45°
2026-04-15 14:52 34.88344 33.63587 380 ft 157 kts 45°
2026-04-15 14:52 34.89098 33.64564 1026 ft 158 kts 48°
2026-04-15 14:53 34.89829 33.65558 1617 ft 158 kts 50°
2026-04-15 14:53 34.90607 33.66645 1841 ft 182 kts 51°
2026-04-15 14:53 34.91304 33.68000 2057 ft 205 kts 72°
2026-04-15 14:53 34.91299 33.69856 2318 ft 232 kts 110°
2026-04-15 14:54 34.90260 33.71334 3091 ft 238 kts 149°
2026-04-15 14:54 34.88646 33.71720 3747 ft 249 kts 188°
2026-04-15 14:54 34.87092 33.70794 4456 ft 254 kts 228°
2026-04-15 14:54 34.86330 33.68923 5280 ft 246 kts 265°
2026-04-15 14:55 34.86342 33.66869 6190 ft 241 kts 278°
2026-04-15 14:55 34.86554 33.64858 7016 ft 240 kts 279°
2026-04-15 14:55 34.86770 33.62858 7804 ft 241 kts 277°
2026-04-15 14:55 34.86877 33.60769 8297 ft 258 kts 273°
2026-04-15 14:56 34.86851 33.58506 8768 ft 274 kts 264°
2026-04-15 14:56 34.86589 33.56185 9512 ft 278 kts 260°
2026-04-15 14:56 34.86232 33.53861 10265 ft 282 kts 258°
2026-04-15 14:56 34.85835 33.51431 10511 ft 304 kts 258°
2026-04-15 14:57 34.85414 33.48821 10799 ft 321 kts 258°
2026-04-15 14:57 34.84996 33.46122 11394 ft 326 kts 259°
2026-04-15 14:57 34.84591 33.43392 12088 ft 329 kts 259°
2026-04-15 14:57 34.84193 33.40643 12792 ft 331 kts 259°
2026-04-15 14:58 34.83800 33.37870 13488 ft 333 kts 259°
2026-04-15 14:58 34.83407 33.35075 14124 ft 336 kts 259°
2026-04-15 14:58 34.83011 33.32262 14705 ft 339 kts 260°
2026-04-15 14:58 34.82610 33.29430 15275 ft 341 kts 260°
2026-04-15 14:59 34.82204 33.26564 15843 ft 344 kts 260°
2026-04-15 14:59 34.81795 33.23686 16408 ft 347 kts 260°
2026-04-15 14:59 34.81379 33.20766 16968 ft 350 kts 260°
2026-04-15 14:59 34.80962 33.17841 17530 ft 353 kts 260°
2026-04-15 15:00 34.80537 33.14884 18095 ft 356 kts 260°
2026-04-15 15:00 34.80110 33.11913 18615 ft 359 kts 260°
2026-04-15 15:00 34.79675 33.08895 19104 ft 362 kts 260°
2026-04-15 15:00 34.79238 33.05856 19571 ft 366 kts 260°
2026-04-15 15:01 34.78801 33.02784 20035 ft 370 kts 261°
2026-04-15 15:01 34.78363 32.99684 20511 ft 374 kts 261°
2026-04-15 15:01 34.77925 32.96553 20963 ft 377 kts 261°
2026-04-15 15:01 34.77478 32.93395 21401 ft 380 kts 261°
2026-04-15 15:02 34.77024 32.90202 21846 ft 384 kts 261°
2026-04-15 15:02 34.76568 32.86995 22288 ft 387 kts 261°
2026-04-15 15:02 34.76105 32.83762 22729 ft 390 kts 261°
2026-04-15 15:02 34.75635 32.80498 23144 ft 393 kts 261°
2026-04-15 15:03 34.75160 32.77199 23569 ft 396 kts 261°
2026-04-15 15:03 34.74689 32.73929 23920 ft 399 kts 261°
2026-04-15 15:03 34.74209 32.70598 24303 ft 400 kts 261°
2026-04-15 15:03 34.73722 32.67264 24702 ft 402 kts 260°
2026-04-15 15:04 34.73219 32.63905 25083 ft 403 kts 260°
2026-04-15 15:04 34.72703 32.60527 25481 ft 405 kts 260°
2026-04-15 15:04 34.72181 32.57146 25879 ft 406 kts 259°
2026-04-15 15:04 34.71660 32.53769 26259 ft 408 kts 259°
2026-04-15 15:05 34.71178 32.50372 26628 ft 409 kts 264°
2026-04-15 15:05 34.70986 32.46909 26985 ft 411 kts 266°
2026-04-15 15:05 34.70816 32.43426 27346 ft 413 kts 266°
2026-04-15 15:05 34.70637 32.39943 27703 ft 414 kts 266°
2026-04-15 15:06 34.70257 32.32910 28421 ft 418 kts 265°
2026-04-15 15:06 34.70062 32.29374 28777 ft 420 kts 265°
2026-04-15 15:06 34.69868 32.25856 29126 ft 422 kts 265°
2026-04-15 15:07 34.69672 32.22289 29474 ft 424 kts 265°
2026-04-15 15:07 34.69476 32.18705 29847 ft 425 kts 265°
2026-04-15 15:07 34.69280 32.15118 30296 ft 423 kts 265°
2026-04-15 15:07 34.69086 32.11557 30737 ft 421 kts 265°
2026-04-15 15:08 34.68893 32.08010 31179 ft 419 kts 265°
2026-04-15 15:08 34.68701 32.04491 31619 ft 417 kts 264°
2026-04-15 15:08 34.68505 32.00981 32062 ft 415 kts 264°
2026-04-15 15:08 34.68305 31.97483 32511 ft 413 kts 264°
2026-04-15 15:09 34.68204 31.93991 32956 ft 413 kts 270°
2026-04-15 15:09 34.68577 31.90522 33396 ft 415 kts 280°
2026-04-15 15:09 34.69463 31.87185 33835 ft 418 kts 290°
2026-04-15 15:09 34.70840 31.84052 34202 ft 421 kts 297°
2026-04-15 15:10 34.72349 31.81008 34549 ft 419 kts 296°
2026-04-15 15:10 34.73843 31.77971 34902 ft 418 kts 296°
2026-04-15 15:10 34.75318 31.74944 35253 ft 416 kts 296°
2026-04-15 15:10 34.76785 31.71921 35590 ft 414 kts 296°
2026-04-15 15:11 34.78244 31.68905 35932 ft 412 kts 295°
2026-04-15 15:11 34.79702 31.65893 36248 ft 411 kts 295°
2026-04-15 15:11 34.81154 31.62904 36567 ft 410 kts 295°
2026-04-15 15:11 34.82605 31.59917 36867 ft 408 kts 295°
2026-04-15 15:12 34.84047 31.56943 37162 ft 407 kts 295°
2026-04-15 15:12 34.85463 31.54010 37445 ft 406 kts 295°
2026-04-15 15:12 34.86893 31.51047 37726 ft 405 kts 295°
2026-04-15 15:12 34.88317 31.48093 37938 ft 404 kts 295°
2026-04-15 15:13 34.91160 31.42192 37999 ft 403 kts 295°
2026-04-15 15:13 34.94025 31.36260 38000 ft 403 kts 295°
2026-04-15 15:14 34.96845 31.30396 38005 ft 403 kts 295°
2026-04-15 15:14 34.99676 31.24489 38002 ft 403 kts 295°
2026-04-15 15:15 35.02505 31.18583 38009 ft 403 kts 295°
2026-04-15 15:15 35.05332 31.12667 38014 ft 404 kts 295°
2026-04-15 15:16 35.08168 31.06738 38014 ft 404 kts 295°
2026-04-15 15:16 35.10999 31.00807 38022 ft 404 kts 295°
2026-04-15 15:17 35.13823 30.94865 38023 ft 404 kts 295°
2026-04-15 15:17 35.15403 30.92002 38025 ft 410 kts 306°
2026-04-15 15:17 35.17477 30.89567 38025 ft 419 kts 317°
2026-04-15 15:18 35.19993 30.87698 38024 ft 428 kts 330°
2026-04-15 15:18 35.22840 30.86544 38020 ft 437 kts 344°
2026-04-15 15:18 35.28989 30.86081 38000 ft 445 kts 353°
2026-04-15 15:19 35.35197 30.85889 38019 ft 446 kts 353°
2026-04-15 15:19 35.41417 30.85684 38027 ft 447 kts 353°
2026-04-15 15:20 35.47630 30.85476 38036 ft 447 kts 353°
2026-04-15 15:20 35.53853 30.85262 38043 ft 447 kts 353°
2026-04-15 15:21 35.60069 30.85052 38052 ft 446 kts 353°
2026-04-15 15:21 35.66240 30.84792 38058 ft 445 kts 352°
2026-04-15 15:22 35.71420 30.84473 38057 ft 444 kts 352°
2026-04-15 15:22 35.77580 30.84061 38061 ft 443 kts 352°
2026-04-15 15:23 35.83740 30.83663 38059 ft 442 kts 352°
2026-04-15 15:23 35.89886 30.83293 38064 ft 442 kts 352°
2026-04-15 15:24 35.95997 30.82936 38060 ft 441 kts 352°
2026-04-15 15:24 36.02131 30.82574 38063 ft 441 kts 352°
2026-04-15 15:25 36.08265 30.82252 38064 ft 441 kts 353°
2026-04-15 15:25 36.14404 30.82064 38059 ft 441 kts 354°
2026-04-15 15:26 36.20549 30.81904 38063 ft 441 kts 354°
2026-04-15 15:26 36.26696 30.81708 38063 ft 441 kts 354°
2026-04-15 15:27 36.32837 30.81497 38063 ft 441 kts 354°
2026-04-15 15:27 36.38983 30.81285 38067 ft 441 kts 353°
2026-04-15 15:28 36.45126 30.81076 38069 ft 441 kts 354°
2026-04-15 15:28 36.51270 30.80867 38069 ft 441 kts 354°
2026-04-15 15:29 36.57422 30.80658 38071 ft 441 kts 354°
2026-04-15 15:29 36.63530 30.80449 38070 ft 441 kts 354°
2026-04-15 15:30 36.69680 30.80229 38068 ft 442 kts 354°
2026-04-15 15:30 36.75820 30.80011 38077 ft 442 kts 354°
2026-04-15 15:31 36.81972 30.79799 38075 ft 442 kts 354°
2026-04-15 15:31 36.88124 30.79595 38083 ft 442 kts 354°
2026-04-15 15:32 36.94290 30.79762 38080 ft 446 kts
2026-04-15 15:32 37.00460 30.80628 38078 ft 446 kts
2026-04-15 15:33 37.06637 30.81506 38081 ft 446 kts
2026-04-15 15:33 37.12813 30.82385 38082 ft 446 kts
2026-04-15 15:34 37.18984 30.83257 38096 ft 446 kts
2026-04-15 15:34 37.25152 30.84123 38113 ft 446 kts
2026-04-15 15:35 37.31322 30.84991 38108 ft 445 kts
2026-04-15 15:35 37.37496 30.85877 38125 ft 446 kts
2026-04-15 15:36 37.43661 30.86760 38131 ft 446 kts
2026-04-15 15:36 37.49827 30.87642 38140 ft 446 kts
2026-04-15 15:37 37.55999 30.88525 38150 ft 445 kts
2026-04-15 15:37 37.62124 30.89397 38152 ft 445 kts
2026-04-15 15:38 37.68287 30.90283 38160 ft 445 kts
2026-04-15 15:38 37.74443 30.91169 38166 ft 445 kts
2026-04-15 15:39 37.80594 30.92046 38167 ft 445 kts
2026-04-15 15:39 37.86753 30.92926 38173 ft 445 kts
2026-04-15 15:40 37.92906 30.93813 38176 ft 444 kts
2026-04-15 15:40 37.99050 30.94705 38173 ft 444 kts
2026-04-15 15:41 38.05195 30.95601 38168 ft 444 kts
2026-04-15 15:41 38.11343 30.96489 38173 ft 444 kts
2026-04-15 15:42 38.17490 30.97379 38176 ft 444 kts
2026-04-15 15:42 38.23582 30.98275 38174 ft 443 kts
2026-04-15 15:43 38.29708 30.99161 38178 ft 443 kts
2026-04-15 15:43 38.35830 31.00054 38175 ft 442 kts
2026-04-15 15:44 38.41951 31.00957 38181 ft 442 kts
2026-04-15 15:44 38.48031 31.01177 38169 ft 431 kts 347°
2026-04-15 15:45 38.53722 30.99218 38173 ft 421 kts 334°
2026-04-15 15:45 38.59200 30.96576 38167 ft 421 kts 334°
2026-04-15 15:46 38.64690 30.93947 38164 ft 421 kts 334°
2026-04-15 15:46 38.70176 30.91319 38164 ft 421 kts 334°
2026-04-15 15:47 38.75668 30.88671 38160 ft 421 kts 334°
2026-04-15 15:47 38.81148 30.86026 38161 ft 421 kts 334°
2026-04-15 15:48 38.86638 30.83376 38160 ft 421 kts 334°
2026-04-15 15:48 38.92123 30.80720 38153 ft 421 kts 333°
2026-04-15 15:49 38.97610 30.78062 38159 ft 421 kts 333°
2026-04-15 15:49 39.03097 30.75397 38156 ft 421 kts 333°
2026-04-15 15:50 39.08572 30.72727 38160 ft 421 kts 333°
2026-04-15 15:50 39.14045 30.70058 38153 ft 420 kts 333°
2026-04-15 15:51 39.19482 30.67401 38155 ft 420 kts 333°
2026-04-15 15:51 39.24944 30.64724 38152 ft 419 kts 333°
2026-04-15 15:52 39.30401 30.62049 38151 ft 419 kts 333°
2026-04-15 15:52 39.35860 30.59375 38146 ft 419 kts 333°
2026-04-15 15:53 39.41302 30.56699 38139 ft 418 kts 333°
2026-04-15 15:53 39.46744 30.54022 38142 ft 418 kts 333°
2026-04-15 15:54 39.51311 30.51774 38154 ft 418 kts 332°
2026-04-15 15:54 39.56736 30.49033 38159 ft 416 kts 330°
2026-04-15 15:55 39.62014 30.45982 38167 ft 415 kts 328°
2026-04-15 15:55 39.67247 30.42824 38171 ft 414 kts 328°
2026-04-15 15:56 39.72504 30.39716 38174 ft 414 kts 329°
2026-04-15 15:56 39.77766 30.36649 38177 ft 415 kts 329°
2026-04-15 15:57 39.83038 30.33574 38173 ft 415 kts 329°
2026-04-15 15:57 39.88265 30.30509 38168 ft 414 kts 329°
2026-04-15 15:58 39.93530 30.27414 38162 ft 414 kts 329°
2026-04-15 15:58 39.98778 30.24328 38159 ft 414 kts 329°
2026-04-15 15:59 40.04032 30.21232 38150 ft 414 kts 329°
2026-04-15 15:59 40.09275 30.18143 38143 ft 413 kts 328°
2026-04-15 16:00 40.14519 30.15041 38141 ft 414 kts 328°
2026-04-15 16:00 40.19775 30.11934 38141 ft 414 kts 328°
2026-04-15 16:01 40.25021 30.08827 38134 ft 414 kts 328°
2026-04-15 16:01 40.30281 30.05701 38147 ft 415 kts 328°
2026-04-15 16:02 40.35543 30.02568 38141 ft 415 kts 328°
2026-04-15 16:02 40.40798 29.99426 38145 ft 415 kts 328°
2026-04-15 16:03 40.46062 29.96285 38151 ft 416 kts 328°
2026-04-15 16:03 40.51331 29.93139 38156 ft 416 kts 328°
2026-04-15 16:04 40.56600 29.89986 38160 ft 416 kts 328°
2026-04-15 16:04 40.61868 29.86821 38185 ft 417 kts 328°
2026-04-15 16:05 40.67152 29.83645 38181 ft 417 kts 329°
2026-04-15 16:05 40.72438 29.80469 38179 ft 418 kts 329°
2026-04-15 16:06 40.77714 29.77282 38184 ft 417 kts 329°
2026-04-15 16:06 40.82990 29.74083 38187 ft 417 kts 329°
2026-04-15 16:07 40.88278 29.70888 38191 ft 418 kts 329°
2026-04-15 16:08 40.96228 29.66062 38202 ft 418 kts 329°
2026-04-15 16:08 41.01506 29.62846 38201 ft 418 kts 328°
2026-04-15 16:09 41.06792 29.59621 38204 ft 418 kts 329°
2026-04-15 16:09 41.12073 29.56401 38203 ft 418 kts 329°
2026-04-15 16:10 41.17355 29.53177 38214 ft 418 kts 329°
2026-04-15 16:10 41.22851 29.50494 38220 ft 425 kts 337°
2026-04-15 16:11 41.28539 29.48350 38224 ft 425 kts 338°
2026-04-15 16:11 41.34217 29.46199 38228 ft 424 kts 337°
2026-04-15 16:12 41.39893 29.44035 38231 ft 424 kts 337°
2026-04-15 16:12 41.45567 29.41879 38233 ft 424 kts 337°
2026-04-15 16:13 41.51231 29.39717 38233 ft 423 kts 337°
2026-04-15 16:13 41.56888 29.37544 38232 ft 423 kts 337°
2026-04-15 16:14 41.62568 29.35361 38236 ft 423 kts 338°
2026-04-15 16:14 41.68221 29.33189 38230 ft 423 kts 338°
2026-04-15 16:15 41.73873 29.31024 38230 ft 422 kts 338°
2026-04-15 16:15 41.79523 29.28855 38231 ft 422 kts 338°
2026-04-15 16:16 41.85167 29.26680 38229 ft 422 kts 338°
2026-04-15 16:16 41.90808 29.24491 38229 ft 422 kts 338°
2026-04-15 16:17 41.96444 29.22288 38232 ft 422 kts 338°
2026-04-15 16:17 42.02085 29.20095 38232 ft 422 kts 338°
2026-04-15 16:18 42.07731 29.17911 38236 ft 422 kts 338°
2026-04-15 16:18 42.13376 29.15720 38234 ft 422 kts 338°
2026-04-15 16:19 42.19049 29.13498 38235 ft 422 kts 338°
2026-04-15 16:19 42.24680 29.11248 38239 ft 422 kts 338°
2026-04-15 16:20 42.30302 29.08980 38236 ft 422 kts 338°
2026-04-15 16:20 42.35934 29.06708 38223 ft 422 kts 338°
2026-04-15 16:21 42.41568 29.04435 38227 ft 423 kts 338°
2026-04-15 16:21 42.47207 29.02172 38230 ft 423 kts 339°
2026-04-15 16:22 42.52850 28.99910 38241 ft 423 kts 339°
2026-04-15 16:22 42.58498 28.97629 38243 ft 424 kts 339°
2026-04-15 16:23 42.64141 28.95337 38235 ft 424 kts 339°
2026-04-15 16:23 42.69797 28.93037 38242 ft 424 kts 339°
2026-04-15 16:24 42.75456 28.90740 38245 ft 424 kts 339°
2026-04-15 16:24 42.81114 28.88433 38246 ft 425 kts 339°
2026-04-15 16:25 42.86775 28.86120 38252 ft 425 kts 339°
2026-04-15 16:25 42.92448 28.83798 38261 ft 425 kts 339°
2026-04-15 16:26 42.97159 28.81870 38255 ft 425 kts 339°
2026-04-15 16:26 43.02859 28.79529 38260 ft 425 kts 339°
2026-04-15 16:27 43.08521 28.77197 38256 ft 425 kts 339°
2026-04-15 16:27 43.14187 28.74864 38257 ft 425 kts 339°
2026-04-15 16:28 43.19723 28.72578 38255 ft 425 kts 339°
2026-04-15 16:28 43.25389 28.70228 38257 ft 425 kts 339°
2026-04-15 16:29 43.31045 28.67884 38259 ft 425 kts 339°
2026-04-15 16:29 43.36717 28.65536 38260 ft 425 kts 339°
2026-04-15 16:30 43.42381 28.63184 38259 ft 426 kts 339°
2026-04-15 16:30 43.48050 28.60821 38262 ft 426 kts 339°
2026-04-15 16:31 43.53723 28.58447 38262 ft 426 kts 339°
2026-04-15 16:31 43.59395 28.56074 38262 ft 426 kts 339°
2026-04-15 16:32 43.65070 28.53690 38260 ft 427 kts 339°
2026-04-15 16:32 43.70759 28.51295 38263 ft 427 kts 339°
2026-04-15 16:33 43.76176 28.48130 38262 ft 422 kts 328°
2026-04-15 16:33 43.81309 28.44177 38258 ft 422 kts 328°
2026-04-15 16:34 43.86475 28.40200 38257 ft 423 kts 328°
2026-04-15 16:34 43.91620 28.36229 38255 ft 423 kts 328°
2026-04-15 16:35 43.96766 28.32259 38255 ft 423 kts 328°
2026-04-15 16:35 44.01913 28.28279 38254 ft 424 kts 328°
2026-04-15 16:36 44.07064 28.24286 38255 ft 424 kts 328°
2026-04-15 16:36 44.12213 28.20278 38255 ft 424 kts 328°
2026-04-15 16:37 44.17354 28.16275 38255 ft 424 kts 328°
2026-04-15 16:37 44.22508 28.12257 38253 ft 425 kts 328°
2026-04-15 16:38 44.27660 28.08219 38251 ft 425 kts 328°
2026-04-15 16:38 44.32816 28.04174 38252 ft 425 kts 328°
2026-04-15 16:39 44.37976 28.00129 38250 ft 425 kts 328°
2026-04-15 16:39 44.43137 27.96081 38247 ft 425 kts 328°
2026-04-15 16:40 44.48302 27.92008 38244 ft 425 kts 328°
2026-04-15 16:40 44.53461 27.87931 38240 ft 426 kts 328°
2026-04-15 16:41 44.58620 27.83851 38237 ft 426 kts 328°
2026-04-15 16:41 44.63769 27.79756 38239 ft 426 kts 328°
2026-04-15 16:42 44.68931 27.75650 38235 ft 426 kts 328°
2026-04-15 16:42 44.74085 27.71546 38234 ft 426 kts 328°
2026-04-15 16:43 44.79246 27.67433 38233 ft 426 kts 328°
2026-04-15 16:43 44.84404 27.63314 38218 ft 426 kts 327°
2026-04-15 16:44 44.89551 27.59186 38237 ft 425 kts 327°
2026-04-15 16:44 44.94683 27.55059 38235 ft 424 kts 327°
2026-04-15 16:45 44.99799 27.50941 38235 ft 423 kts 327°
2026-04-15 16:45 45.04917 27.46821 38229 ft 423 kts 327°
2026-04-15 16:46 45.10032 27.42696 38232 ft 423 kts 327°
2026-04-15 16:46 45.15136 27.38564 38223 ft 423 kts 327°
2026-04-15 16:47 45.20272 27.34393 38226 ft 422 kts 327°
2026-04-15 16:47 45.25337 27.30262 38227 ft 422 kts 327°
2026-04-15 16:48 45.30434 27.26108 38225 ft 422 kts 327°
2026-04-15 16:48 45.35558 27.21931 38222 ft 422 kts 327°
2026-04-15 16:49 45.40654 27.17768 38225 ft 422 kts 327°
2026-04-15 16:49 45.45740 27.13602 38217 ft 422 kts 327°
2026-04-15 16:50 45.50829 27.09422 38219 ft 422 kts 327°
2026-04-15 16:50 45.55902 27.05244 38228 ft 420 kts 327°
2026-04-15 16:51 45.60951 27.01072 38230 ft 419 kts 327°
2026-04-15 16:51 45.65989 26.96903 38226 ft 418 kts 327°
2026-04-15 16:52 45.71017 26.92737 38220 ft 417 kts 327°
2026-04-15 16:52 45.76035 26.88557 38216 ft 417 kts 327°
2026-04-15 16:53 45.81048 26.84379 38218 ft 417 kts 327°
2026-04-15 16:53 45.86061 26.80203 38215 ft 417 kts 327°
2026-04-15 16:54 45.91072 26.76016 38213 ft 417 kts 327°
2026-04-15 16:54 45.96100 26.71864 38197 ft 418 kts 332°
2026-04-15 16:54 45.98878 26.70435 38199 ft 423 kts 344°
2026-04-15 16:55 46.01820 26.69931 38198 ft 429 kts 357°
2026-04-15 16:55 46.07774 26.71152 38198 ft 434 kts
2026-04-15 16:56 46.13723 26.72720 38194 ft 435 kts
2026-04-15 16:56 46.19684 26.74282 38201 ft 436 kts
2026-04-15 16:57 46.25655 26.75849 38210 ft 436 kts
2026-04-15 16:57 46.31631 26.77424 38213 ft 436 kts
2026-04-15 16:58 46.36602 26.78729 38220 ft 437 kts
2026-04-15 16:58 46.42576 26.80301 38215 ft 436 kts
2026-04-15 16:59 46.48549 26.81892 38216 ft 437 kts
2026-04-15 16:59 46.51429 26.83221 38210 ft 443 kts 22°
2026-04-15 16:59 46.54133 26.85631 38211 ft 448 kts 31°
2026-04-15 17:00 46.59225 26.90869 38209 ft 449 kts 31°
2026-04-15 17:00 46.64316 26.96147 38206 ft 450 kts 31°
2026-04-15 17:01 46.69418 27.01431 38205 ft 450 kts 31°
2026-04-15 17:01 46.74525 27.06722 38208 ft 450 kts 31°
2026-04-15 17:02 46.79627 27.12019 38206 ft 451 kts 31°
2026-04-15 17:02 46.84735 27.17338 38205 ft 451 kts 31°
2026-04-15 17:03 46.89843 27.22659 38202 ft 451 kts 31°
2026-04-15 17:03 46.94951 27.27983 38202 ft 451 kts 31°
2026-04-15 17:04 46.99589 27.34135 38202 ft 460 kts 57°
2026-04-15 17:04 47.00751 27.38253 38203 ft 464 kts 73°
2026-04-15 17:04 47.01396 27.42960 37905 ft 469 kts 85°
2026-04-15 17:04 47.01572 27.47765 37105 ft 474 kts 89°
2026-04-15 17:05 47.01531 27.52630 36041 ft 484 kts 89°
2026-04-15 17:05 47.01544 27.57606 34761 ft 495 kts 88°
2026-04-15 17:05 47.01559 27.61891 33609 ft 498 kts 94°
2026-04-15 17:05 47.00902 27.66838 32190 ft 499 kts 110°
2026-04-15 17:06 46.99486 27.71112 30914 ft 496 kts 126°
2026-04-15 17:06 46.97267 27.74916 29503 ft 490 kts 139°
2026-04-15 17:06 46.94819 27.78285 28038 ft 487 kts 135°
2026-04-15 17:06 46.92791 27.82333 26631 ft 486 kts 118°
2026-04-15 17:07 46.91629 27.86864 25320 ft 481 kts 102°
2026-04-15 17:07 46.91245 27.91685 24048 ft 474 kts 93°
2026-04-15 17:07 46.91129 27.96465 22641 ft 467 kts 85°
2026-04-15 17:07 46.91734 28.01063 21314 ft 456 kts 67°
2026-04-15 17:08 46.93222 28.04991 20667 ft 428 kts 48°
2026-04-15 17:08 46.95296 28.07892 20322 ft 398 kts 32°
2026-04-15 17:08 46.97643 28.09788 19855 ft 374 kts 17°
2026-04-15 17:08 47.00097 28.10516 19379 ft 350 kts 356°
2026-04-15 17:09 47.02429 28.09945 18900 ft 331 kts 339°
2026-04-15 17:09 47.04570 28.08888 18424 ft 319 kts 338°
2026-04-15 17:09 47.06636 28.07814 17873 ft 311 kts 337°
2026-04-15 17:09 47.08651 28.06758 17341 ft 303 kts 337°
2026-04-15 17:10 47.10603 28.05659 16818 ft 295 kts 329°
2026-04-15 17:10 47.12053 28.03727 16314 ft 283 kts 298°
2026-04-15 17:10 47.12537 28.00994 15802 ft 278 kts 267°
2026-04-15 17:10 47.12343 27.99134 15487 ft 276 kts 260°
2026-04-15 17:11 47.12187 27.97210 15142 ft 271 kts 274°
2026-04-15 17:11 47.12674 27.94603 14652 ft 265 kts 302°
2026-04-15 17:11 47.13900 27.92657 14295 ft 259 kts 320°
2026-04-15 17:12 47.16866 27.89876 13527 ft 249 kts 327°
2026-04-15 17:12 47.18342 27.88590 13130 ft 243 kts 327°
2026-04-15 17:12 47.19785 27.87336 12738 ft 239 kts 327°
2026-04-15 17:12 47.21211 27.86096 12347 ft 235 kts 327°
2026-04-15 17:13 47.22609 27.84877 11969 ft 233 kts 327°
2026-04-15 17:13 47.23983 27.83674 11590 ft 233 kts 327°
2026-04-15 17:13 47.25388 27.82437 11216 ft 237 kts 327°
2026-04-15 17:13 47.26807 27.81181 10850 ft 241 kts 327°
2026-04-15 17:14 47.28256 27.79889 10485 ft 245 kts 327°
2026-04-15 17:14 47.29722 27.78573 10120 ft 248 kts 327°
2026-04-15 17:14 47.31204 27.77233 9725 ft 251 kts 327°
2026-04-15 17:14 47.32699 27.75875 9330 ft 254 kts 327°
2026-04-15 17:15 47.34212 27.74495 8979 ft 254 kts 327°
2026-04-15 17:15 47.35707 27.73128 8722 ft 251 kts 327°
2026-04-15 17:15 47.37185 27.71775 8466 ft 249 kts 327°
2026-04-15 17:15 47.38652 27.70430 8211 ft 247 kts 327°
2026-04-15 17:16 47.40105 27.69097 7956 ft 244 kts 327°
2026-04-15 17:16 47.41544 27.67776 7703 ft 242 kts 327°
2026-04-15 17:16 47.42966 27.66467 7454 ft 240 kts 327°
2026-04-15 17:16 47.44375 27.65166 7205 ft 237 kts 327°
2026-04-15 17:17 47.45770 27.63872 6961 ft 235 kts 327°
2026-04-15 17:17 47.47134 27.62604 6722 ft 233 kts 327°
2026-04-15 17:17 47.48413 27.61124 6465 ft 230 kts 307°
2026-04-15 17:17 47.49006 27.58991 6206 ft 230 kts 277°
2026-04-15 17:18 47.49144 27.56656 5949 ft 226 kts 282°
2026-04-15 17:18 47.49432 27.54385 5722 ft 223 kts 271°
2026-04-15 17:18 47.49101 27.52199 5653 ft 221 kts 243°
2026-04-15 17:18 47.48091 27.50467 5604 ft 225 kts 215°
2026-04-15 17:19 47.46637 27.49629 5553 ft 228 kts 188°
2026-04-15 17:19 47.45057 27.49382 5504 ft 229 kts 187°
2026-04-15 17:19 47.43467 27.49152 5450 ft 234 kts 187°
2026-04-15 17:19 47.41800 27.48914 5332 ft 243 kts 186°
2026-04-15 17:20 47.40120 27.48675 5081 ft 242 kts 186°
2026-04-15 17:20 47.38453 27.48435 4794 ft 240 kts 186°
2026-04-15 17:20 47.36792 27.48196 4509 ft 238 kts 186°
2026-04-15 17:20 47.35154 27.47972 4194 ft 236 kts 183°
2026-04-15 17:21 47.33533 27.48352 3784 ft 234 kts 158°
2026-04-15 17:21 47.32145 27.49484 3478 ft 225 kts 149°
2026-04-15 17:21 47.30836 27.50660 3179 ft 216 kts 149°
2026-04-15 17:21 47.29586 27.51780 2893 ft 204 kts 149°
2026-04-15 17:22 47.28408 27.52833 2648 ft 190 kts 150°
2026-04-15 17:22 47.27324 27.53801 2399 ft 173 kts 150°
2026-04-15 17:22 47.26364 27.54660 2173 ft 151 kts 150°
2026-04-15 17:22 47.25500 27.55430 1966 ft 141 kts 150°
2026-04-15 17:23 47.24676 27.56165 1776 ft 137 kts 150°
2026-04-15 17:23 47.23862 27.56890 1597 ft 136 kts 150°
2026-04-15 17:23 47.23058 27.57606 1415 ft 135 kts 150°
2026-04-15 17:23 47.22258 27.58322 1231 ft 135 kts 149°
2026-04-15 17:24 47.21458 27.59047 1026 ft 134 kts 148°
2026-04-15 17:24 47.20654 27.59761 831 ft 135 kts 149°
2026-04-15 17:24 47.19843 27.60455 666 ft 134 kts 146°
2026-04-15 17:24 47.19050 27.61185 487 ft 135 kts 147°
2026-04-15 17:25 47.18282 27.61869 391 ft 120 kts 147°
2026-04-15 17:25 47.17717 27.62369 366 ft 57 kts 149°
2026-04-15 17:25 47.17586 27.62486 360 ft 10 kts 148°
2026-04-15 17:25 47.17501 27.62561 357 ft 17 kts 149°
2026-04-15 17:26 47.17389 27.62629 352 ft 18 kts 190°
2026-04-15 17:26 47.17319 27.62516 362 ft 13 kts 238°
2026-04-15 17:26 47.17273 27.62405 366 ft 15 kts 240°
2026-04-15 17:26 47.17300 27.62274 371 ft 15 kts 327°
2026-04-15 17:27 47.17391 27.62194 373 ft 16 kts 329°
2026-04-15 17:27 47.17494 27.62103 373 ft 18 kts 328°
2026-04-15 17:27 47.17568 27.62045 373 ft 0 kts 334°
2026-04-15 17:27 47.17575 27.62034 373 ft 3 kts 309°
2026-04-15 17:28 47.17567 27.61977 373 ft 8 kts 260°
2026-04-15 17:28 47.17568 27.61958 373 ft 2 kts 270°
2026-04-15 17:28 47.17568 27.61946 373 ft 0 kts 274°